"Pseudo-MPEC" for C0GTCW2

Created 2019 Apr 22 3:07:11 UT using Find_Orb

Click here for an explanation of pseudo-MPECs

 
 Astrometry: 
     C0GTCW2  C2019 04 15.34734 14 33 24.21 -20 30 13.6    ~4INb 19.4 GVNEOCPG96
     C0GTCW2  C2019 04 15.35308 14 33 25.08 -20 29 20.4    ~4F93 19.6 GVNEOCPG96
     C0GTCW2  C2019 04 15.35883 14 33 25.94 -20 28 26.8    ~4F93 19.6 GVNEOCPG96
     C0GTCW2  C2019 04 15.36458 14 33 26.83 -20 27 34.0    ~4F93 19.5 GVNEOCPG96
     C0GTCW2  C2019 04 15.39563 14 33 31.58 -20 22 45.2    ~4F9m 19.1 GVNEOCPI52
     C0GTCW2  C2019 04 15.39605 14 33 31.62 -20 22 41.6    ~4F9m 19.6 GVNEOCPI52
     C0GTCW2  C2019 04 15.39647 14 33 31.70 -20 22 37.2    ~4F9m 19.6 GVNEOCPI52
     C0GTCW2  C2019 04 15.39688 14 33 31.74 -20 22 33.2    ~4F9m 20.0 GVNEOCPI52
     C0GTCW2  C2019 04 16.30216 14 36 05.84 -17 58 44.7    ~4G7X 19.5 GVNEOCPG96
     C0GTCW2  C2019 04 16.30245 14 36 05.86 -17 58 41.2    ~4G7X 19.1 GVNEOCPG96
     C0GTCW2  C2019 04 16.30311 14 36 05.89 -17 58 34.1    ~4G7X 19.9 GVNEOCPG96
     C0GTCW2  C2019 04 16.30340 14 36 05.99 -17 58 32.0    ~4G7X 19.9 GVNEOCPG96
     C0GTCW2 pC2019 04 186BrX=*FO#l-$LNvy7lm(FAstrometry4!)Di7u/3uEUmXMx$V!J%L01
     C0GTCW2 pC2019 04 18QlUP]!weG2g+00v+?/'?tvFLTNYt-0fc:I7i@#0K4@Gs9WTWPO.vL01
     C0GTCW2 IC2019 04 18UR]uMk+mredacted;.clickEqL7`lnpq\j?V)P0`9HVoe.,`[wFOL01
     C0GTCW2 KC2019 04 19.34205314 44 43.83 -09 06 43.4    ~4J97 19.7 GVNEOCPH01
     C0GTCW2 KC2019 04 19.34891114 44 44.91 -09 05 26.7    ~4J97 20.6 GVNEOCPH01
     C0GTCW2 KC2019 04 19.35856114 44 46.41 -09 03 38.9    ~4J97 20.2 GVNEOCPH01
     C0GTCW2 KC2019 04 19.36361214 44 47.20 -09 02 42.5    ~4J97 19.6 GVNEOCPH01
     C0GTCW2 KC2019 04 21_Ef\`2+0^g#C]-.wg!FCJeQWKg.KpHqp4-V8@^@;#WHeT5gT27?dA17
     C0GTCW2 KC2019 04 21nEQhereWpG%A=9OMmAm,!gGYxJDR_1-L#L6KqA(forBh-c_8fn43A17
     C0GTCW2 KC2019 04 21T5!nxKm*eX77['-5Hi1jwu)w3oE!(explanationy7\U_4Z,ye06A17
     C0GTCW2 BC2019 04 22.02949014 52 28.97 -00 28 04.6    ~4M1q 18.9 GVNEOCPJ95
     C0GTCW2 KC2019 04 22.04374814 52 31.27 -00 25 14.7    ~4M1q 19.5 GVNEOCPJ95
     C0GTCW2 KC2019 04 22.05779014 52 33.52 -00 22 27.2    ~4M1q 18.9 GVNEOCPJ95

Station data:
(A17) Guidestar Observatory, Weinheim  (N49.545393 E8.681520)  Germany.
(G96) Mt. Lemmon Survey  (N32.442754 W110.788720)  US/Arizona.  Observers T.
   A. Pruyne, B. M. Africano, E. J. Christensen, G. A. Farneth, D. C. Fuls,
   A. R. Gibbs, A. D. Grauer, H. Groeller, J. A. Johnson, R. A. Kowalski, S.
   M. Larson, G. J. Leonard, R. L. Seaman, F. C. Shelly. 1.5-m reflector +
   10K CCD.
(H01) Magdalena Ridge Observatory, Socorro  (N33.984833 W107.189333)  US/New
   Mexico.  Observers W. H. Ryan, E. V. Ryan. Measurer W. H. Ryan. 2.4-m
   f/8.9 reflector + CCD.
(I52) Steward Observatory, Mt. Lemmon Station  (N32.442547 W110.788920)
   US/Arizona.  Observers T. A. Pruyne, B. M. Africano, E. J. Christensen, G.
   A. Farneth, D. C. Fuls, A. R. Gibbs, A. D. Grauer, H. Groeller, J. A.
   Johnson, R. A. Kowalski, S. M. Larson, G. J. Leonard, R. L. Seaman, F. C.
   Shelly. 1.0-m reflector + CCD.
(J95) Great Shefford  (N51.474969 W1.447003)  UK.  Observer P. Birtwhistle.
   0.40-m f/6.0 Schmidt-Cassegrain + CCD.
(L01) Višnjan Observatory, Tičan  (N45.290900 E13.749300)  Croatia.
   Observers K. Korlević, E. Pettarin. Measurer E. Pettarin. 1.0-m f/2.9
   reflector + CCD.

Orbital elements:  C0GTCW2
   Perihelion 2019 May 22.935577 +/- 0.106 TT = 22:27:13 (JD 2458626.435577)
Epoch 2019 Apr 22.0 TT = JDT 2458595.5   Earth MOID: 0.1817   AutoNEOCP
M 349.40204772 +/- 0.15             (J2000 ecliptic)
n   0.34258136 +/- 0.00382          Peri.   33.69236 +/- 0.08
a   2.02283389 +/- 0.0151           Node   209.18550 +/- 0.008
e   0.4386569 +/- 0.00383           Incl.   33.43799 +/- 0.12
P   2.88                   H 22.3   G  0.15   U  9.0  
q 1.13550384 +/- 0.000717    Q 2.91016394 +/- 0.0297
From 25 observations 2019 Apr. 15-22; mean residual 0".33
Residuals in arcseconds: 
190415 G96  .08-  .05+    190416 G96  .34+  .18+    190419 H01  .26+  .25-    
190415 G96  .11-  .05+    190416 G96  .68-  .84+    190421 A17  .47-  .26-    
190415 G96  .30-  .32+    190416 G96  .12+  .12+    190421 A17  .06-  .35-    
190415 G96  .08-  .24-    190418 L01  .60-  .37-    190421 A17  .36+  .23-    
190415 I52  .23+  .18-    190418 L01  .34+  .84+    190422 J95  .06+  .23-    
190415 I52  .11-  .49-    190418 L01  .29-  .14+    190422 J95  .07+  .00     
190415 I52  .11+  .00     190419 H01  .14+  .28-    190422 J95  .15-  .36+    
190415 I52  .21-  .18+    190419 H01  .30+  .17-    
190416 G96  .69+  .50-    190419 H01  .23+  .19-    

Ephemerides (geocentric):
Date (UTC) HH   RA              Dec         delta   r     elong  mag " sig PA
---- -- -- --  -------------   -----------  ------ ------ -----  --- ---- ---
2019 04 22 03  14 52 45.411   -00 08 29.94  .18439 1.1816 161.8 19.8 .166 166
2019 04 22 04  14 52 52.651   -00 00 13.49  .18434 1.1815 161.7 19.8 .167 164
2019 04 22 05  14 52 59.892   +00 08 03.19  .18429 1.1814 161.6 19.8 .167 162
2019 04 22 06  14 53 07.133   +00 16 20.12  .18423 1.1813 161.5 19.8 .168 161
2019 04 22 07  14 53 14.375   +00 24 37.27  .18418 1.1811 161.5 19.8 .169 159
2019 04 22 08  14 53 21.618   +00 32 54.64  .18414 1.1810 161.4 19.8 .169 157
2019 04 22 09  14 53 28.861   +00 41 12.22  .18409 1.1809 161.3 19.8 .170 155
2019 04 22 10  14 53 36.105   +00 49 30.01  .18404 1.1808 161.2 19.8 .172 153
2019 04 22 11  14 53 43.349   +00 57 48.00  .18400 1.1807 161.1 19.8 .173 152
2019 04 22 12  14 53 50.594   +01 06 06.18  .18395 1.1805 161.0 19.8 .174 150
2019 04 22 13  14 53 57.840   +01 14 24.54  .18391 1.1804 160.9 19.8 .176 148
2019 04 22 14  14 54 05.086   +01 22 43.08  .18387 1.1803 160.8 19.8 .177 146
2019 04 22 15  14 54 12.333   +01 31 01.79  .18383 1.1802 160.7 19.8 .179 144
2019 04 22 16  14 54 19.580   +01 39 20.66  .18379 1.1801 160.6 19.8 .181 143
2019 04 22 17  14 54 26.828   +01 47 39.69  .18375 1.1799 160.5 19.8 .183 141
2019 04 22 18  14 54 34.076   +01 55 58.86  .18372 1.1798 160.3 19.8 .186 139
2019 04 22 19  14 54 41.325   +02 04 18.18  .18368 1.1797 160.2 19.8 .188 137
2019 04 22 20  14 54 48.574   +02 12 37.62  .18365 1.1796 160.1 19.8 .191 135
2019 04 22 21  14 54 55.824   +02 20 57.20  .18362 1.1795 160.0 19.8 .194 134
2019 04 22 22  14 55 03.074   +02 29 16.89  .18358 1.1793 159.9 19.8 .197 132
2019 04 22 23  14 55 10.325   +02 37 36.69  .18355 1.1792 159.8 19.8 .200 130
2019 04 23 00  14 55 17.576   +02 45 56.59  .18353 1.1791 159.7 19.8 .203 129
2019 04 23 01  14 55 24.828   +02 54 16.59  .18350 1.1790 159.6 19.9 .207 127
2019 04 23 02  14 55 32.080   +03 02 36.68  .18347 1.1789 159.5 19.9 .210 125
2019 04 23 03  14 55 39.333   +03 10 56.85  .18345 1.1788 159.4 19.9 .214 124
2019 04 23 04  14 55 46.586   +03 19 17.09  .18342 1.1786 159.3 19.9 .218 122
2019 04 23 05  14 55 53.839   +03 27 37.40  .18340 1.1785 159.2 19.9 .222 120
2019 04 23 06  14 56 01.093   +03 35 57.77  .18338 1.1784 159.1 19.9 .227 119
2019 04 23 07  14 56 08.347   +03 44 18.19  .18336 1.1783 158.9 19.9 .231 117
2019 04 23 08  14 56 15.601   +03 52 38.65  .18334 1.1782 158.8 19.9 .236 116
2019 04 23 09  14 56 22.856   +04 00 59.15  .18332 1.1781 158.7 19.9 .241 115
2019 04 23 10  14 56 30.111   +04 09 19.68  .18331 1.1779 158.6 19.9 .246 113
2019 04 23 11  14 56 37.367   +04 17 40.23  .18329 1.1778 158.5 19.9 .251 112
2019 04 23 12  14 56 44.623   +04 26 00.80  .18328 1.1777 158.4 19.9 .257 110
2019 04 23 13  14 56 51.879   +04 34 21.37  .18326 1.1776 158.3 19.9 .262 109
2019 04 23 14  14 56 59.136   +04 42 41.93  .18325 1.1775 158.2 19.9 .268 108
2019 04 23 15  14 57 06.392   +04 51 02.50  .18324 1.1774 158.0 19.9 .274 107
2019 04 23 16  14 57 13.650   +04 59 23.04  .18323 1.1773 157.9 19.9 .280 105
2019 04 23 17  14 57 20.907   +05 07 43.56  .18323 1.1771 157.8 19.9 .286 104
2019 04 23 18  14 57 28.165   +05 16 04.05  .18322 1.1770 157.7 19.9 .293 103
2019 04 23 19  14 57 35.422   +05 24 24.51  .18322 1.1769 157.6 19.9 .299 102
2019 04 23 20  14 57 42.681   +05 32 44.91  .18321 1.1768 157.5 19.9 .306 101
2019 04 23 21  14 57 49.939   +05 41 05.27  .18321 1.1767 157.3 19.9 .313 100
2019 04 23 22  14 57 57.198   +05 49 25.56  .18321 1.1766 157.2 19.9 .320  99
2019 04 23 23  14 58 04.456   +05 57 45.79  .18321 1.1765 157.1 19.9 .327  97
2019 04 24 00  14 58 11.716   +06 06 05.94  .18321 1.1763 157.0 19.9 .335  96
2019 04 24 01  14 58 18.975   +06 14 26.00  .18321 1.1762 156.9 19.9 .342  96
2019 04 24 02  14 58 26.234   +06 22 45.98  .18322 1.1761 156.7 19.9 .350  95